User: anonymous   Login
Location: Albany
(35.0000°S, 118.0000°E)
Time: 12:58:28
(UTC-04:00)
Language:

Cosmos 1346 Rocket - Orbit

View from above orbital plane
View from above orbital plane
View from above satellite
View from above satellite

Ground track
Ground track

The orbit data is extracted from the following two-line orbital elements,

1 13121U 82027B   17083.94520829 +.00000030 +00000-0 +36593-6 0  9990
2 13121 081.1663 215.9572 0029589 090.2487 270.2128 15.08213978903995
Epoch (UTC): 24 March 2017 22:41:05
Eccentricity: 0.0029589
inclination: 81.1663°
perigee height: 521 km
apogee height: 562 km
right ascension of ascending node: 215.9572°
argument of perigee: 90.2487°
revolutions per day: 15.08213978
mean anomaly at epoch: 270.2128°
orbit number at epoch: 90399

The dashed part of the orbit path shows where the satellite is in the earth's shadow,  

DLR